Home > Weather > Kyrenia > Past weeks

Flag for Cyprus Past Weather in Kyrenia, Northern Cyprus, Cyprus — Yesterday and Last 2 Weeks

Now
61 °F

Passing clouds.


Feels Like: 61 °F
Forecast: 62 / 78 °F
Wind: 5 mph from Northeast

Location: Ercan

Current Time: May 26, 2016 at 6:00:56 AM

Latest Report: May 26, 2016 at 5:20 AM


Visibility: N/A

Pressure: 29.71 "Hg

Humidity: 88%

Dew Point: 57 °F

Location of KyreniaLocation

Past Weather in Kyrenia — Graph

°F

Kyrenia Temperature Yesterday

Maximum temperature yesterday: 88 °F (at 2:20 PM)
Minimum temperature yesterday: 55 °F (at 4:20 AM)
Average temperature yesterday: 72 °F

High & Low Weather Summary for the Past Weeks

 TemperatureHumidityPressure
High97 °F (May 14, 1:50 PM)94% (May 12, 4:50 AM)30.01 "Hg (May 12, 4:50 AM)
Low55 °F (May 25, 4:20 AM)9% (May 22, 6:20 PM)29.68 "Hg (May 22, 5:50 PM)
Average74 °F49%29.87 "Hg
* Reported May 11 4:20 AM — May 26 4:50 AM, Kyrenia, Weather by CustomWeather, © 2016

Note: Actual official high and low records may vary slightly from our data, if they occured in-between our weather recording intervals... More about our weather records

Advertising

Kyrenia Weather History for the Previous 24 Hours

Scroll right to see more
 ConditionsComfort  
Time TempWeatherWind HumidityBarometerVisibility
4:50 AM
Thu, May 26
61 °FPassing clouds.7 mph88%29.74 "HgN/A
4:20 AM63 °FPassing clouds.3 mph83%29.74 "HgN/A
3:50 AM63 °FPassing clouds.3 mph83%29.74 "HgN/A
3:20 AM63 °FPassing clouds.3 mph83%29.74 "HgN/A
2:50 AM64 °FPassing clouds.6 mph83%29.74 "HgN/A
2:20 AM64 °FPassing clouds.7 mph83%29.74 "HgN/A
1:50 AM66 °FPassing clouds.8 mph83%29.74 "HgN/A
1:20 AM66 °FClear.6 mph78%29.77 "Hg10 mi
12:50 AM66 °FClear.9 mph83%29.77 "Hg10 mi
12:20 AM66 °FClear.9 mph83%29.77 "Hg10 mi
11:50 PM
Wed, May 25
66 °FClear.9 mph83%29.80 "Hg10 mi
11:20 PM68 °FClear.9 mph73%29.80 "Hg10 mi
10:50 PM68 °FClear.9 mph78%29.80 "Hg10 mi
10:20 PM68 °FClear.7 mph73%29.80 "Hg10 mi
9:50 PM68 °FPassing clouds.8 mph69%29.80 "HgN/A
9:20 PM70 °FPassing clouds.9 mph64%29.80 "HgN/A
8:50 PM70 °FPassing clouds.7 mph64%29.80 "HgN/A
8:20 PM72 °FPassing clouds.7 mph61%29.80 "HgN/A
7:50 PM73 °FPassing clouds.6 mph53%29.80 "HgN/A
7:20 PM77 °FPassing clouds.6 mph44%29.77 "HgN/A
6:50 PM77 °FPassing clouds.9 mph44%29.80 "HgN/A
6:20 PM81 °FPassing clouds.6 mph34%29.80 "HgN/A
5:50 PM81 °FPassing clouds.9 mph39%29.80 "HgN/A
5:20 PM81 °FPassing clouds.12 mph42%29.80 "HgN/A
4:50 PM81 °FPassing clouds.14 mph45%29.80 "HgN/A
4:20 PM81 °FPassing clouds.16 mph45%29.80 "HgN/A
3:50 PM81 °FScattered clouds.17 mph45%29.80 "HgN/A
3:20 PM86 °FScattered clouds.22 mph35%29.80 "HgN/A
2:50 PM86 °FPassing clouds.20 mph29%29.80 "HgN/A
2:20 PM88 °FPassing clouds.5 mph24%29.80 "HgN/A
1:50 PM86 °FPassing clouds.5 mph25%29.83 "HgN/A
1:20 PM86 °FPassing clouds.5 mph22%29.83 "HgN/A
12:50 PM84 °FPassing clouds.7 mph23%29.86 "HgN/A
12:20 PM82 °FPassing clouds.7 mph26%29.86 "HgN/A
11:50 AM82 °FPassing clouds.6 mph26%29.86 "HgN/A
11:20 AM81 °FPassing clouds.6 mph28%29.89 "HgN/A
10:50 AM79 °FPassing clouds.5 mph30%29.89 "HgN/A
10:20 AM77 °FSunny.6 mph34%29.89 "Hg10 mi
9:50 AM75 °FSunny.6 mph39%29.89 "Hg10 mi
9:20 AM75 °FSunny.No wind41%29.89 "Hg10 mi
8:50 AM72 °FSunny.7 mph47%29.89 "Hg10 mi
8:20 AM70 °FSunny.6 mph50%29.89 "Hg10 mi
7:50 AM68 °FSunny.3 mph56%29.89 "Hg10 mi
7:20 AM64 °FPassing clouds.No wind64%29.89 "HgN/A
6:50 AM63 °FPassing clouds.5 mph68%29.89 "HgN/A
6:20 AM57 °FPassing clouds.6 mph77%29.89 "HgN/A
Weather by CustomWeather, © 2016

See weather overviewHow to use our weather pages